Time,TemperatureF,DewpointF,PressureIn,WindDirection,WindDirectionDegrees,WindSpeedMPH,WindSpeedGustMPH,Humidity,HourlyPrecipIn,Conditions,Clouds,dailyrainin,SoftwareType,DateUTC
2013-01-26 00:00:00,42.6,38.0,28.71,NNW,337,0.0,0.0,83,0.00,,,0.00,Rainwise IP-100,2013-01-26 06:00:00,
2013-01-26 00:05:00,42.3,38.0,28.71,NNW,337,0.0,1.6,84,0.00,,,0.00,Rainwise IP-100,2013-01-26 06:05:00,
2013-01-26 00:10:00,42.2,38.0,28.71,NNW,337,0.0,1.2,84,0.00,,,0.00,Rainwise IP-100,2013-01-26 06:10:00,
2013-01-26 00:15:00,42.2,38.0,28.71,NNW,337,1.4,1.4,84,0.00,,,0.00,Rainwise IP-100,2013-01-26 06:15:00,
2013-01-26 00:20:00,42.1,38.0,28.71,NNW,337,1.2,1.6,84,0.00,,,0.00,Rainwise IP-100,2013-01-26 06:20:00,
2013-01-26 00:25:00,42.0,38.0,28.71,NNW,337,0.0,1.9,84,0.00,,,0.00,Rainwise IP-100,2013-01-26 06:25:00,
2013-01-26 00:30:00,41.9,38.0,28.71,NNW,337,0.0,1.2,84,0.00,,,0.00,Rainwise IP-100,2013-01-26 06:30:00,
2013-01-26 00:35:00,41.8,38.0,28.71,NNW,337,0.0,1.2,85,0.00,,,0.00,Rainwise IP-100,2013-01-26 06:35:00,
2013-01-26 00:40:00,41.6,38.0,28.71,NNW,337,0.0,0.0,85,0.00,,,0.00,Rainwise IP-100,2013-01-26 06:40:00,
2013-01-26 00:45:00,41.5,38.0,28.72,NNW,337,0.0,2.6,86,0.00,,,0.00,Rainwise IP-100,2013-01-26 06:45:00,
2013-01-26 00:50:00,41.9,38.0,28.72,NNW,337,0.0,2.3,86,0.00,,,0.00,Rainwise IP-100,2013-01-26 06:50:00,
2013-01-26 00:55:00,42.2,38.0,28.72,NNW,337,0.0,1.4,86,0.00,,,0.00,Rainwise IP-100,2013-01-26 06:55:00,
2013-01-26 01:00:00,42.2,38.0,28.72,NNW,337,0.0,0.0,86,0.00,,,0.00,Rainwise IP-100,2013-01-26 07:00:00,
2013-01-26 01:05:00,42.2,38.0,28.72,NNW,337,0.0,0.0,86,0.00,,,0.00,Rainwise IP-100,2013-01-26 07:05:00,
2013-01-26 01:10:00,42.0,38.0,28.72,NNW,337,0.0,1.6,86,0.00,,,0.00,Rainwise IP-100,2013-01-26 07:10:00,
2013-01-26 01:15:00,41.8,38.0,28.72,NNW,337,0.0,0.0,86,0.00,,,0.00,Rainwise IP-100,2013-01-26 07:15:00,
2013-01-26 01:20:00,41.6,38.0,28.72,NNW,337,0.0,0.0,86,0.00,,,0.00,Rainwise IP-100,2013-01-26 07:20:00,
2013-01-26 01:25:00,41.3,37.0,28.72,NNW,337,0.0,0.0,86,0.00,,,0.00,Rainwise IP-100,2013-01-26 07:25:00,
2013-01-26 01:30:00,41.0,38.0,28.72,NNW,337,0.0,0.0,87,0.00,,,0.00,Rainwise IP-100,2013-01-26 07:30:00,
2013-01-26 01:35:00,41.0,38.0,28.72,NNW,337,0.0,2.1,88,0.00,,,0.00,Rainwise IP-100,2013-01-26 07:35:00,
2013-01-26 01:40:00,41.2,38.0,28.72,NNW,337,0.0,2.8,87,0.00,,,0.00,Rainwise IP-100,2013-01-26 07:40:00,
2013-01-26 01:45:00,41.1,38.0,28.72,NNW,337,2.1,2.1,87,0.00,,,0.00,Rainwise IP-100,2013-01-26 07:45:00,
2013-01-26 01:50:00,41.1,38.0,28.72,NNW,337,0.0,2.6,87,0.00,,,0.00,Rainwise IP-100,2013-01-26 07:50:00,
2013-01-26 01:55:00,41.5,38.0,28.72,NNE,22,1.9,3.0,87,0.00,,,0.00,Rainwise IP-100,2013-01-26 07:55:00,
2013-01-26 02:00:00,42.1,38.0,28.72,NNE,22,0.0,2.6,86,0.00,,,0.00,Rainwise IP-100,2013-01-26 08:00:00,
2013-01-26 02:05:00,42.5,39.0,28.71,NE,45,0.0,3.0,85,0.00,,,0.00,Rainwise IP-100,2013-01-26 08:05:00,
2013-01-26 02:10:00,42.6,39.0,28.71,NE,45,1.9,2.6,85,0.00,,,0.00,Rainwise IP-100,2013-01-26 08:10:00,
2013-01-26 02:15:00,42.8,39.0,28.71,NE,45,0.0,2.8,84,0.00,,,0.00,Rainwise IP-100,2013-01-26 08:15:00,
2013-01-26 02:20:00,43.0,38.0,28.71,NE,45,2.1,2.3,83,0.00,,,0.00,Rainwise IP-100,2013-01-26 08:20:00,
2013-01-26 02:25:00,43.2,38.0,28.71,NE,45,0.0,2.8,82,0.00,,,0.00,Rainwise IP-100,2013-01-26 08:25:00,
2013-01-26 02:30:00,43.3,38.0,28.71,NE,45,0.0,2.6,82,0.00,,,0.00,Rainwise IP-100,2013-01-26 08:30:00,
2013-01-26 02:35:00,43.4,38.0,28.71,NE,45,0.0,2.1,81,0.00,,,0.00,Rainwise IP-100,2013-01-26 08:35:00,
2013-01-26 02:40:00,43.3,38.0,28.71,NNE,22,0.0,2.3,81,0.00,,,0.00,Rainwise IP-100,2013-01-26 08:40:00,
2013-01-26 02:45:00,43.1,38.0,28.71,North,360,1.6,3.3,81,0.00,,,0.00,Rainwise IP-100,2013-01-26 08:45:00,
2013-01-26 02:50:00,43.0,38.0,28.71,North,360,1.2,2.1,81,0.00,,,0.00,Rainwise IP-100,2013-01-26 08:50:00,
2013-01-26 02:52:00,42.9,38.0,28.71,North,360,1.4,2.8,81,0.00,,,0.00,Rainwise IP-100,2013-01-26 08:52:00,
2013-01-26 02:53:00,42.9,38.0,28.71,North,360,0.0,2.8,81,0.00,,,0.00,Rainwise IP-100,2013-01-26 08:53:00,
2013-01-26 02:55:00,42.8,38.0,28.71,North,360,0.0,2.8,82,0.00,,,0.00,Rainwise IP-100,2013-01-26 08:55:00,
2013-01-26 03:00:00,42.8,38.0,28.70,North,360,0.0,0.0,82,0.00,,,0.00,Rainwise IP-100,2013-01-26 09:00:00,
2013-01-26 03:06:00,42.7,38.0,28.70,North,360,1.2,1.4,82,0.00,,,0.00,Rainwise IP-100,2013-01-26 09:06:00,
2013-01-26 03:11:00,42.6,38.0,28.70,North,360,1.4,2.1,82,0.00,,,0.00,Rainwise IP-100,2013-01-26 09:11:00,
2013-01-26 03:16:00,42.6,38.0,28.70,North,360,2.3,2.3,83,0.00,,,0.00,Rainwise IP-100,2013-01-26 09:16:00,
2013-01-26 03:21:00,42.5,38.0,28.70,North,360,1.2,2.3,83,0.00,,,0.00,Rainwise IP-100,2013-01-26 09:21:00,
2013-01-26 03:26:00,42.4,37.0,28.70,North,360,0.0,2.8,83,0.00,,,0.00,Rainwise IP-100,2013-01-26 09:26:00,
2013-01-26 03:31:00,42.3,37.0,28.70,North,360,1.9,2.6,83,0.00,,,0.00,Rainwise IP-100,2013-01-26 09:31:00,
2013-01-26 03:36:00,42.2,37.0,28.69,North,360,1.2,2.1,83,0.00,,,0.00,Rainwise IP-100,2013-01-26 09:36:00,
2013-01-26 03:41:00,42.1,37.0,28.69,North,360,0.0,2.6,83,0.00,,,0.00,Rainwise IP-100,2013-01-26 09:41:00,
2013-01-26 03:46:00,42.0,37.0,28.69,North,360,1.2,2.3,83,0.00,,,0.00,Rainwise IP-100,2013-01-26 09:46:00,
2013-01-26 03:51:00,41.9,37.0,28.69,North,360,0.0,1.4,83,0.00,,,0.00,Rainwise IP-100,2013-01-26 09:51:00,
2013-01-26 03:56:00,41.7,37.0,28.70,North,360,0.0,0.0,83,0.00,,,0.00,Rainwise IP-100,2013-01-26 09:56:00,
2013-01-26 04:01:00,41.5,37.0,28.69,North,360,1.2,1.2,83,0.00,,,0.00,Rainwise IP-100,2013-01-26 10:01:00,
2013-01-26 04:06:00,41.5,38.0,28.69,North,360,0.0,1.4,84,0.00,,,0.00,Rainwise IP-100,2013-01-26 10:06:00,
2013-01-26 04:11:00,41.4,37.0,28.69,North,360,0.0,2.3,84,0.00,,,0.00,Rainwise IP-100,2013-01-26 10:11:00,
2013-01-26 04:16:00,41.2,37.0,28.69,North,360,0.0,0.0,85,0.00,,,0.00,Rainwise IP-100,2013-01-26 10:16:00,
2013-01-26 04:21:00,41.1,37.0,28.69,North,360,0.0,2.1,85,0.00,,,0.00,Rainwise IP-100,2013-01-26 10:21:00,
2013-01-26 04:26:00,41.0,37.0,28.69,North,360,0.0,1.6,85,0.00,,,0.00,Rainwise IP-100,2013-01-26 10:26:00,
2013-01-26 04:31:00,41.1,37.0,28.70,North,360,0.0,1.6,85,0.00,,,0.00,Rainwise IP-100,2013-01-26 10:31:00,
2013-01-26 04:36:00,41.2,37.0,28.70,North,360,0.0,0.0,85,0.00,,,0.00,Rainwise IP-100,2013-01-26 10:36:00,
2013-01-26 04:41:00,41.2,37.0,28.69,North,360,0.0,0.0,85,0.00,,,0.00,Rainwise IP-100,2013-01-26 10:41:00,
2013-01-26 04:46:00,41.2,37.0,28.69,North,360,0.0,1.4,85,0.00,,,0.00,Rainwise IP-100,2013-01-26 10:46:00,
2013-01-26 04:51:00,41.1,37.0,28.68,North,360,0.0,0.0,85,0.00,,,0.00,Rainwise IP-100,2013-01-26 10:51:00,
2013-01-26 04:56:00,41.0,37.0,28.69,North,360,0.0,0.0,85,0.00,,,0.00,Rainwise IP-100,2013-01-26 10:56:00,
2013-01-26 05:01:00,40.9,37.0,28.70,North,360,0.0,1.4,85,0.00,,,0.00,Rainwise IP-100,2013-01-26 11:01:00,
2013-01-26 05:06:00,40.9,37.0,28.69,North,360,0.0,1.2,85,0.00,,,0.00,Rainwise IP-100,2013-01-26 11:06:00,
2013-01-26 05:11:00,41.0,37.0,28.68,North,360,0.0,1.9,86,0.00,,,0.00,Rainwise IP-100,2013-01-26 11:11:00,
2013-01-26 05:16:00,41.0,37.0,28.68,North,360,0.0,1.4,86,0.00,,,0.00,Rainwise IP-100,2013-01-26 11:16:00,
2013-01-26 05:21:00,41.4,37.0,28.68,North,360,0.0,1.2,86,0.00,,,0.00,Rainwise IP-100,2013-01-26 11:21:00,
2013-01-26 05:26:00,41.7,38.0,28.68,North,360,0.0,0.0,86,0.00,,,0.00,Rainwise IP-100,2013-01-26 11:26:00,
2013-01-26 05:31:00,41.7,38.0,28.68,North,360,1.4,1.4,86,0.00,,,0.00,Rainwise IP-100,2013-01-26 11:31:00,
2013-01-26 05:36:00,41.7,38.0,28.68,North,360,2.1,3.0,86,0.00,,,0.00,Rainwise IP-100,2013-01-26 11:36:00,
2013-01-26 05:41:00,42.0,38.0,28.68,North,360,0.0,3.5,86,0.00,,,0.00,Rainwise IP-100,2013-01-26 11:41:00,
2013-01-26 05:46:00,42.2,38.0,28.68,NNE,22,3.0,3.7,85,0.00,,,0.00,Rainwise IP-100,2013-01-26 11:46:00,
2013-01-26 05:51:00,42.3,38.0,28.68,North,360,3.3,3.7,85,0.00,,,0.00,Rainwise IP-100,2013-01-26 11:51:00,
2013-01-26 05:56:00,42.2,38.0,28.68,North,360,0.0,3.7,85,0.00,,,0.00,Rainwise IP-100,2013-01-26 11:56:00,
2013-01-26 06:01:00,42.2,38.0,28.68,North,360,0.0,2.1,84,0.00,,,0.00,Rainwise IP-100,2013-01-26 12:01:00,
2013-01-26 06:06:00,42.1,38.0,28.68,North,360,0.0,0.0,84,0.00,,,0.00,Rainwise IP-100,2013-01-26 12:06:00,
2013-01-26 06:11:00,42.1,38.0,28.68,North,360,0.0,1.4,84,0.00,,,0.00,Rainwise IP-100,2013-01-26 12:11:00,
2013-01-26 06:16:00,42.0,38.0,28.68,North,360,0.0,0.0,84,0.00,,,0.00,Rainwise IP-100,2013-01-26 12:16:00,
2013-01-26 06:21:00,41.9,38.0,28.69,North,360,0.0,0.0,85,0.00,,,0.00,Rainwise IP-100,2013-01-26 12:21:00,
2013-01-26 06:26:00,41.9,38.0,28.69,North,360,0.0,0.0,85,0.00,,,0.00,Rainwise IP-100,2013-01-26 12:26:00,
2013-01-26 06:31:00,41.9,38.0,28.68,North,360,0.0,0.0,85,0.00,,,0.00,Rainwise IP-100,2013-01-26 12:31:00,
2013-01-26 06:36:00,41.8,38.0,28.69,North,360,0.0,0.0,85,0.00,,,0.00,Rainwise IP-100,2013-01-26 12:36:00,
2013-01-26 06:41:00,41.8,38.0,28.70,North,360,0.0,2.1,86,0.00,,,0.00,Rainwise IP-100,2013-01-26 12:41:00,
2013-01-26 06:46:00,41.8,38.0,28.70,North,360,0.0,1.9,86,0.00,,,0.00,Rainwise IP-100,2013-01-26 12:46:00,
2013-01-26 06:51:00,41.9,38.0,28.71,North,360,0.0,0.0,85,0.00,,,0.00,Rainwise IP-100,2013-01-26 12:51:00,
2013-01-26 06:56:00,42.1,38.0,28.71,North,360,0.0,0.0,85,0.00,,,0.00,Rainwise IP-100,2013-01-26 12:56:00,
2013-01-26 07:01:00,42.4,38.0,28.71,North,360,0.0,0.0,85,0.00,,,0.00,Rainwise IP-100,2013-01-26 13:01:00,
2013-01-26 07:06:00,42.8,39.0,28.71,North,360,0.0,0.0,84,0.00,,,0.00,Rainwise IP-100,2013-01-26 13:06:00,
2013-01-26 07:11:00,43.0,39.0,28.71,North,360,1.4,0.0,84,0.00,,,0.00,Rainwise IP-100,2013-01-26 13:11:00,
2013-01-26 07:16:00,43.3,38.0,28.72,North,360,1.4,2.3,83,0.00,,,0.00,Rainwise IP-100,2013-01-26 13:16:00,
2013-01-26 07:21:00,43.4,38.0,28.72,NNW,337,2.3,3.7,82,0.00,,,0.00,Rainwise IP-100,2013-01-26 13:21:00,
2013-01-26 07:26:00,43.4,38.0,28.72,NNW,337,0.0,4.0,82,0.00,,,0.00,Rainwise IP-100,2013-01-26 13:26:00,
2013-01-26 07:31:00,43.4,38.0,28.72,NNW,337,1.2,2.6,82,0.00,,,0.00,Rainwise IP-100,2013-01-26 13:31:00,
2013-01-26 07:36:00,43.5,39.0,28.71,NNW,337,0.0,3.0,82,0.00,,,0.00,Rainwise IP-100,2013-01-26 13:36:00,
2013-01-26 07:41:00,43.7,39.0,28.71,NNE,22,0.0,3.0,82,0.00,,,0.00,Rainwise IP-100,2013-01-26 13:41:00,
2013-01-26 07:46:00,43.9,39.0,28.71,NNE,22,0.0,3.0,82,0.00,,,0.00,Rainwise IP-100,2013-01-26 13:46:00,
2013-01-26 07:51:00,44.1,38.0,28.71,NNE,22,0.0,2.6,81,0.00,,,0.00,Rainwise IP-100,2013-01-26 13:51:00,
2013-01-26 07:56:00,44.2,38.0,28.71,NNE,22,1.2,2.1,81,0.00,,,0.00,Rainwise IP-100,2013-01-26 13:56:00,
2013-01-26 08:01:00,44.4,38.0,28.71,NNE,22,0.0,1.6,81,0.00,,,0.00,Rainwise IP-100,2013-01-26 14:01:00,
2013-01-26 08:06:00,44.6,39.0,28.71,NNE,22,0.0,1.9,80,0.00,,,0.00,Rainwise IP-100,2013-01-26 14:06:00,
2013-01-26 08:11:00,44.6,39.0,28.71,NNE,22,2.1,2.3,80,0.00,,,0.00,Rainwise IP-100,2013-01-26 14:11:00,
2013-01-26 08:16:00,44.7,39.0,28.72,NNE,22,0.0,2.1,79,0.00,,,0.00,Rainwise IP-100,2013-01-26 14:16:00,
2013-01-26 08:21:00,44.9,39.0,28.72,ESE,112,0.0,3.5,79,0.00,,,0.00,Rainwise IP-100,2013-01-26 14:21:00,
2013-01-26 08:26:00,45.1,39.0,28.72,ESE,112,0.0,1.4,79,0.00,,,0.00,Rainwise IP-100,2013-01-26 14:26:00,
2013-01-26 08:31:00,45.3,38.0,28.72,ESE,112,2.3,3.0,78,0.00,,,0.00,Rainwise IP-100,2013-01-26 14:31:00,
2013-01-26 08:36:00,45.4,38.0,28.72,ESE,112,1.2,2.8,78,0.00,,,0.00,Rainwise IP-100,2013-01-26 14:36:00,
2013-01-26 08:41:00,45.5,39.0,28.72,ESE,112,1.9,1.9,78,0.00,,,0.00,Rainwise IP-100,2013-01-26 14:41:00,
2013-01-26 08:46:00,45.7,39.0,28.72,ESE,112,0.0,2.6,77,0.00,,,0.00,Rainwise IP-100,2013-01-26 14:46:00,
2013-01-26 08:51:00,45.9,39.0,28.72,ESE,112,1.9,2.6,77,0.00,,,0.00,Rainwise IP-100,2013-01-26 14:51:00,
2013-01-26 08:56:00,46.1,39.0,28.72,ESE,112,0.0,2.8,76,0.00,,,0.00,Rainwise IP-100,2013-01-26 14:56:00,
2013-01-26 09:01:00,46.3,39.0,28.72,East,90,1.9,4.0,76,0.00,,,0.00,Rainwise IP-100,2013-01-26 15:01:00,
2013-01-26 09:06:00,46.6,39.0,28.72,SE,135,1.9,4.0,75,0.00,,,0.00,Rainwise IP-100,2013-01-26 15:06:00,
2013-01-26 09:11:00,47.0,39.0,28.72,ESE,112,1.2,4.2,74,0.00,,,0.00,Rainwise IP-100,2013-01-26 15:11:00,
2013-01-26 09:16:00,47.3,39.0,28.72,ESE,112,2.3,4.4,73,0.00,,,0.00,Rainwise IP-100,2013-01-26 15:16:00,
2013-01-26 09:21:00,47.6,39.0,28.72,ESE,112,3.5,5.8,72,0.00,,,0.00,Rainwise IP-100,2013-01-26 15:21:00,
2013-01-26 09:26:00,47.8,39.0,28.71,ESE,112,2.3,5.1,72,0.00,,,0.00,Rainwise IP-100,2013-01-26 15:26:00,
2013-01-26 09:31:00,48.2,39.0,28.71,SE,135,2.1,5.8,71,0.00,,,0.00,Rainwise IP-100,2013-01-26 15:31:00,
2013-01-26 09:36:00,48.6,40.0,28.72,ESE,112,1.6,6.1,70,0.00,,,0.00,Rainwise IP-100,2013-01-26 15:36:00,
2013-01-26 09:41:00,48.9,40.0,28.72,ESE,112,5.6,5.6,70,0.00,,,0.00,Rainwise IP-100,2013-01-26 15:41:00,
2013-01-26 09:46:00,49.1,39.0,28.72,SE,135,1.9,6.5,69,0.00,,,0.00,Rainwise IP-100,2013-01-26 15:46:00,
2013-01-26 09:51:00,49.3,39.0,28.73,ESE,112,2.3,6.5,68,0.00,,,0.00,Rainwise IP-100,2013-01-26 15:51:00,
2013-01-26 09:56:00,49.6,39.0,28.72,ESE,112,2.6,4.7,67,0.00,,,0.00,Rainwise IP-100,2013-01-26 15:56:00,
2013-01-26 10:01:00,49.8,39.0,28.73,SE,135,4.0,4.7,67,0.00,,,0.00,Rainwise IP-100,2013-01-26 16:01:00,
2013-01-26 10:06:00,50.0,39.0,28.72,East,90,2.6,5.8,67,0.00,,,0.00,Rainwise IP-100,2013-01-26 16:06:00,
2013-01-26 10:11:00,50.3,40.0,28.73,ENE,67,3.5,5.6,67,0.00,,,0.00,Rainwise IP-100,2013-01-26 16:11:00,
2013-01-26 10:16:00,50.4,40.0,28.72,ENE,67,2.1,5.1,67,0.00,,,0.00,Rainwise IP-100,2013-01-26 16:16:00,
2013-01-26 10:21:00,50.5,40.0,28.73,East,90,2.1,3.3,67,0.00,,,0.00,Rainwise IP-100,2013-01-26 16:21:00,
2013-01-26 10:26:00,50.9,40.0,28.73,NE,45,1.9,5.6,66,0.00,,,0.00,Rainwise IP-100,2013-01-26 16:26:00,
2013-01-26 10:31:00,51.1,40.0,28.73,East,90,0.0,4.2,66,0.00,,,0.00,Rainwise IP-100,2013-01-26 16:31:00,
2013-01-26 10:36:00,51.1,40.0,28.73,East,90,2.1,4.0,66,0.00,,,0.00,Rainwise IP-100,2013-01-26 16:36:00,
2013-01-26 10:41:00,51.3,40.0,28.73,East,90,3.5,3.7,66,0.00,,,0.00,Rainwise IP-100,2013-01-26 16:41:00,
2013-01-26 10:46:00,51.5,40.0,28.73,ESE,112,3.7,5.1,65,0.00,,,0.00,Rainwise IP-100,2013-01-26 16:46:00,
2013-01-26 10:51:00,51.7,40.0,28.72,ENE,67,3.5,4.7,65,0.00,,,0.00,Rainwise IP-100,2013-01-26 16:51:00,
2013-01-26 10:56:00,51.8,41.0,28.73,ESE,112,0.0,4.7,66,0.00,,,0.00,Rainwise IP-100,2013-01-26 16:56:00,
2013-01-26 11:01:00,52.1,41.0,28.73,ENE,67,2.1,2.8,66,0.00,,,0.00,Rainwise IP-100,2013-01-26 17:01:00,
2013-01-26 11:06:00,52.5,41.0,28.73,ESE,112,2.3,3.0,66,0.00,,,0.00,Rainwise IP-100,2013-01-26 17:06:00,
2013-01-26 11:11:00,52.4,41.0,28.73,East,90,3.7,5.8,67,0.00,,,0.00,Rainwise IP-100,2013-01-26 17:11:00,
2013-01-26 11:16:00,52.3,42.0,28.72,NE,45,5.1,5.8,69,0.00,,,0.00,Rainwise IP-100,2013-01-26 17:16:00,
2013-01-26 11:21:00,52.4,43.0,28.72,ESE,112,4.4,7.5,71,0.00,,,0.00,Rainwise IP-100,2013-01-26 17:21:00,
2013-01-26 11:26:00,52.7,43.0,28.72,ESE,112,4.9,5.8,71,0.00,,,0.00,Rainwise IP-100,2013-01-26 17:26:00,
2013-01-26 11:31:00,52.9,43.0,28.72,ENE,67,3.0,6.1,70,0.00,,,0.00,Rainwise IP-100,2013-01-26 17:31:00,
2013-01-26 11:36:00,53.1,43.0,28.72,SE,135,0.0,4.2,70,0.00,,,0.00,Rainwise IP-100,2013-01-26 17:36:00,
2013-01-26 11:41:00,53.6,43.0,28.72,ENE,67,3.3,3.3,69,0.00,,,0.00,Rainwise IP-100,2013-01-26 17:41:00,
2013-01-26 11:46:00,53.9,44.0,28.72,SSE,157,1.9,6.5,70,0.00,,,0.00,Rainwise IP-100,2013-01-26 17:46:00,
2013-01-26 11:51:00,53.9,45.0,28.72,ESE,112,2.1,5.1,71,0.00,,,0.00,Rainwise IP-100,2013-01-26 17:51:00,
2013-01-26 11:56:00,53.9,45.0,28.71,ENE,67,2.1,4.2,71,0.00,,,0.00,Rainwise IP-100,2013-01-26 17:56:00,
2013-01-26 12:01:00,54.0,45.0,28.71,East,90,3.5,5.8,71,0.00,,,0.00,Rainwise IP-100,2013-01-26 18:01:00,
2013-01-26 12:06:00,54.0,45.0,28.71,East,90,0.0,6.8,71,0.00,,,0.00,Rainwise IP-100,2013-01-26 18:06:00,
2013-01-26 12:11:00,54.1,45.0,28.70,SE,135,3.3,6.1,71,0.00,,,0.00,Rainwise IP-100,2013-01-26 18:11:00,
2013-01-26 12:16:00,54.3,46.0,28.70,ENE,67,4.2,5.8,71,0.00,,,0.00,Rainwise IP-100,2013-01-26 18:16:00,
2013-01-26 12:21:00,54.5,46.0,28.70,ENE,67,4.4,6.5,72,0.00,,,0.00,Rainwise IP-100,2013-01-26 18:21:00,
2013-01-26 12:26:00,54.7,46.0,28.69,NE,45,7.2,7.2,71,0.00,,,0.00,Rainwise IP-100,2013-01-26 18:26:00,
2013-01-26 12:31:00,54.8,46.0,28.69,East,90,3.0,7.2,71,0.00,,,0.00,Rainwise IP-100,2013-01-26 18:31:00,
2013-01-26 12:36:00,54.9,47.0,28.69,ENE,67,5.6,9.1,72,0.00,,,0.00,Rainwise IP-100,2013-01-26 18:36:00,
2013-01-26 12:41:00,55.3,47.0,28.69,ENE,67,4.0,7.0,72,0.00,,,0.00,Rainwise IP-100,2013-01-26 18:41:00,
2013-01-26 12:46:00,55.7,47.0,28.68,NE,45,2.8,7.9,71,0.00,,,0.00,Rainwise IP-100,2013-01-26 18:46:00,
2013-01-26 12:51:00,55.9,47.0,28.68,SE,135,5.1,7.5,71,0.00,,,0.00,Rainwise IP-100,2013-01-26 18:51:00,
2013-01-26 12:56:00,56.0,47.0,28.68,ENE,67,2.3,5.6,71,0.00,,,0.00,Rainwise IP-100,2013-01-26 18:56:00,
2013-01-26 13:01:00,56.3,47.5,28.67,ENE,67,2.3,7.5,72,0.00,,,0.00,Rainwise IP-100,2013-01-26 19:01:00,
2013-01-26 13:06:00,56.4,48.0,28.67,ENE,67,6.8,7.2,73,0.00,,,0.00,Rainwise IP-100,2013-01-26 19:06:00,
2013-01-26 13:11:00,56.6,48.0,28.66,ENE,67,3.7,8.4,73,0.00,,,0.00,Rainwise IP-100,2013-01-26 19:11:00,
2013-01-26 13:16:00,56.7,48.0,28.66,East,90,4.7,7.5,73,0.00,,,0.00,Rainwise IP-100,2013-01-26 19:16:00,
2013-01-26 13:21:00,56.8,48.0,28.66,SE,135,1.6,8.6,73,0.00,,,0.00,Rainwise IP-100,2013-01-26 19:21:00,
2013-01-26 13:26:00,57.3,50.0,28.66,ESE,112,3.0,7.5,74,0.00,,,0.00,Rainwise IP-100,2013-01-26 19:26:00,
2013-01-26 13:31:00,57.6,50.0,28.65,East,90,6.8,10.0,74,0.00,,,0.00,Rainwise IP-100,2013-01-26 19:31:00,
2013-01-26 13:36:00,57.8,50.5,28.65,East,90,6.5,9.3,75,0.00,,,0.00,Rainwise IP-100,2013-01-26 19:36:00,
2013-01-26 13:41:00,58.1,50.5,28.65,ESE,112,4.9,7.7,76,0.00,,,0.00,Rainwise IP-100,2013-01-26 19:41:00,
2013-01-26 13:46:00,58.2,50.5,28.65,ESE,112,4.7,8.2,75,0.00,,,0.00,Rainwise IP-100,2013-01-26 19:46:00,
2013-01-26 13:51:00,58.4,50.5,28.64,South,180,5.8,8.6,75,0.00,,,0.00,Rainwise IP-100,2013-01-26 19:51:00,
2013-01-26 13:56:00,58.8,50.5,28.64,South,180,5.1,8.6,74,0.00,,,0.00,Rainwise IP-100,2013-01-26 19:56:00,
2013-01-26 14:01:00,59.1,51.0,28.64,SSE,157,6.3,8.6,75,0.00,,,0.00,Rainwise IP-100,2013-01-26 20:01:00,
2013-01-26 14:06:00,59.1,51.0,28.64,ESE,112,3.3,8.6,75,0.00,,,0.00,Rainwise IP-100,2013-01-26 20:06:00,
2013-01-26 14:11:00,59.0,51.0,28.64,ENE,67,2.6,7.5,75,0.00,,,0.00,Rainwise IP-100,2013-01-26 20:11:00,
2013-01-26 14:16:00,59.1,51.0,28.64,East,90,4.7,7.7,76,0.00,,,0.00,Rainwise IP-100,2013-01-26 20:16:00,
2013-01-26 14:21:00,59.6,52.0,28.64,ESE,112,5.8,9.6,76,0.00,,,0.00,Rainwise IP-100,2013-01-26 20:21:00,
2013-01-26 14:26:00,60.0,53.0,28.64,SE,135,4.9,9.1,76,0.00,,,0.00,Rainwise IP-100,2013-01-26 20:26:00,
2013-01-26 14:31:00,59.8,53.0,28.64,SE,135,1.9,6.8,76,0.00,,,0.00,Rainwise IP-100,2013-01-26 20:31:00,
2013-01-26 14:36:00,59.5,52.0,28.64,SE,135,6.5,9.6,76,0.00,,,0.00,Rainwise IP-100,2013-01-26 20:36:00,
2013-01-26 14:41:00,59.3,52.0,28.64,ESE,112,4.4,8.4,77,0.00,,,0.00,Rainwise IP-100,2013-01-26 20:41:00,
2013-01-26 14:46:00,59.1,52.0,28.63,East,90,1.2,7.0,77,0.00,,,0.00,Rainwise IP-100,2013-01-26 20:46:00,
2013-01-26 14:51:00,59.2,52.0,28.63,ESE,112,3.5,6.8,77,0.00,,,0.00,Rainwise IP-100,2013-01-26 20:51:00,
2013-01-26 14:56:00,59.4,52.0,28.63,SE,135,5.8,7.0,77,0.00,,,0.00,Rainwise IP-100,2013-01-26 20:56:00,
2013-01-26 15:01:00,59.5,52.0,28.63,ESE,112,6.5,6.8,77,0.00,,,0.00,Rainwise IP-100,2013-01-26 21:01:00,
2013-01-26 15:06:00,59.6,52.0,28.62,ESE,112,3.5,7.0,77,0.00,,,0.00,Rainwise IP-100,2013-01-26 21:06:00,
2013-01-26 15:11:00,59.8,53.0,28.62,ESE,112,4.2,7.7,76,0.00,,,0.00,Rainwise IP-100,2013-01-26 21:11:00,
2013-01-26 15:16:00,60.3,53.0,28.62,SSE,157,3.7,8.2,75,0.00,,,0.00,Rainwise IP-100,2013-01-26 21:16:00,
2013-01-26 15:21:00,60.7,53.0,28.63,ESE,112,2.8,8.4,75,0.00,,,0.00,Rainwise IP-100,2013-01-26 21:21:00,
2013-01-26 15:26:00,60.6,53.0,28.62,ESE,112,3.7,8.2,75,0.00,,,0.00,Rainwise IP-100,2013-01-26 21:26:00,
2013-01-26 15:31:00,60.5,53.0,28.62,SE,135,6.1,6.8,75,0.00,,,0.00,Rainwise IP-100,2013-01-26 21:31:00,
2013-01-26 15:36:00,60.5,53.0,28.62,SE,135,4.0,7.5,76,0.00,,,0.00,Rainwise IP-100,2013-01-26 21:36:00,
2013-01-26 15:41:00,60.5,53.0,28.62,ESE,112,4.0,8.2,76,0.00,,,0.00,Rainwise IP-100,2013-01-26 21:41:00,
2013-01-26 15:46:00,60.8,53.5,28.62,ESE,112,5.1,8.2,75,0.00,,,0.00,Rainwise IP-100,2013-01-26 21:46:00,
2013-01-26 15:51:00,61.0,53.5,28.63,SE,135,3.5,7.0,75,0.00,,,0.00,Rainwise IP-100,2013-01-26 21:51:00,
2013-01-26 15:56:00,61.0,53.0,28.62,SE,135,4.9,8.9,74,0.00,,,0.00,Rainwise IP-100,2013-01-26 21:56:00,
2013-01-26 16:01:00,61.1,53.0,28.63,ESE,112,3.5,8.6,74,0.00,,,0.00,Rainwise IP-100,2013-01-26 22:01:00,
2013-01-26 16:06:00,61.0,53.0,28.62,ESE,112,5.4,8.4,74,0.00,,,0.00,Rainwise IP-100,2013-01-26 22:06:00,
2013-01-26 16:11:00,60.9,53.5,28.62,ESE,112,3.5,8.2,75,0.00,,,0.00,Rainwise IP-100,2013-01-26 22:11:00,
2013-01-26 16:16:00,61.3,53.5,28.61,SSE,157,5.8,9.1,75,0.00,,,0.00,Rainwise IP-100,2013-01-26 22:16:00,
2013-01-26 16:21:00,61.6,53.5,28.61,East,90,7.0,11.7,75,0.00,,,0.00,Rainwise IP-100,2013-01-26 22:21:00,
2013-01-26 16:26:00,62.0,53.5,28.61,ESE,112,7.5,8.2,74,0.00,,,0.00,Rainwise IP-100,2013-01-26 22:26:00,
2013-01-26 16:31:00,62.3,54.0,28.61,SE,135,5.8,12.6,74,0.00,,,0.00,Rainwise IP-100,2013-01-26 22:31:00,
2013-01-26 16:37:00,62.1,53.5,28.61,ESE,112,5.4,12.4,74,0.00,,,0.00,Rainwise IP-100,2013-01-26 22:37:00,
2013-01-26 16:42:00,61.9,53.5,28.61,East,90,5.8,10.5,74,0.00,,,0.00,Rainwise IP-100,2013-01-26 22:42:00,
2013-01-26 16:47:00,61.6,53.5,28.61,ESE,112,5.4,14.2,75,0.00,,,0.00,Rainwise IP-100,2013-01-26 22:47:00,
2013-01-26 16:52:00,61.5,54.0,28.61,SSE,157,7.0,12.1,76,0.00,,,0.00,Rainwise IP-100,2013-01-26 22:52:00,
2013-01-26 16:57:00,61.6,54.0,28.61,ESE,112,5.4,10.0,76,0.00,,,0.00,Rainwise IP-100,2013-01-26 22:57:00,
2013-01-26 17:02:00,61.5,54.0,28.61,ESE,112,4.9,12.6,76,0.00,,,0.00,Rainwise IP-100,2013-01-26 23:02:00,
2013-01-26 17:07:00,61.3,54.0,28.61,SE,135,3.3,11.7,77,0.00,,,0.00,Rainwise IP-100,2013-01-26 23:07:00,
2013-01-26 17:12:00,61.1,54.0,28.61,ESE,112,3.7,11.9,77,0.00,,,0.00,Rainwise IP-100,2013-01-26 23:12:00,
2013-01-26 17:17:00,60.9,54.0,28.61,ESE,112,7.9,12.8,78,0.00,,,0.00,Rainwise IP-100,2013-01-26 23:17:00,
2013-01-26 17:22:00,60.8,54.0,28.61,East,90,6.1,11.7,78,0.00,,,0.00,Rainwise IP-100,2013-01-26 23:22:00,
2013-01-26 17:27:00,60.7,53.5,28.60,East,90,2.6,10.3,78,0.00,,,0.00,Rainwise IP-100,2013-01-26 23:27:00,
2013-01-26 17:32:00,60.6,53.5,28.61,SSE,157,2.3,12.1,78,0.00,,,0.00,Rainwise IP-100,2013-01-26 23:32:00,
2013-01-26 17:37:00,60.4,53.5,28.60,ESE,112,4.4,10.0,78,0.00,,,0.00,Rainwise IP-100,2013-01-26 23:37:00,
2013-01-26 17:42:00,60.3,54.0,28.61,ESE,112,5.1,11.9,79,0.00,,,0.00,Rainwise IP-100,2013-01-26 23:42:00,
2013-01-26 17:47:00,60.0,53.5,28.61,ESE,112,5.4,10.5,79,0.00,,,0.00,Rainwise IP-100,2013-01-26 23:47:00,
2013-01-26 17:52:00,59.8,53.5,28.61,SE,135,7.2,10.7,79,0.00,,,0.00,Rainwise IP-100,2013-01-26 23:52:00,
2013-01-26 17:57:00,59.6,53.5,28.61,ESE,112,6.3,13.5,80,0.00,,,0.00,Rainwise IP-100,2013-01-26 23:57:00,
2013-01-26 18:02:00,59.4,53.5,28.61,ESE,112,6.3,10.7,80,0.00,,,0.00,Rainwise IP-100,2013-01-27 00:02:00,
2013-01-26 18:07:00,59.2,53.0,28.60,East,90,6.5,8.6,80,0.00,,,0.00,Rainwise IP-100,2013-01-27 00:07:00,
2013-01-26 18:12:00,59.0,53.5,28.61,ESE,112,4.9,7.9,81,0.00,,,0.00,Rainwise IP-100,2013-01-27 00:12:00,
2013-01-26 18:17:00,59.0,53.5,28.62,ESE,112,5.1,7.7,81,0.00,,,0.00,Rainwise IP-100,2013-01-27 00:17:00,
2013-01-26 18:22:00,58.9,53.5,28.62,SE,135,4.4,8.6,81,0.00,,,0.00,Rainwise IP-100,2013-01-27 00:22:00,
2013-01-26 18:27:00,58.8,53.5,28.61,SSE,157,2.6,9.3,82,0.00,,,0.00,Rainwise IP-100,2013-01-27 00:27:00,
2013-01-26 18:32:00,58.7,53.5,28.62,SE,135,4.9,8.9,82,0.00,,,0.00,Rainwise IP-100,2013-01-27 00:32:00,
2013-01-26 18:37:00,58.7,53.5,28.62,ESE,112,3.7,8.6,82,0.00,,,0.00,Rainwise IP-100,2013-01-27 00:37:00,
2013-01-26 18:42:00,58.7,54.0,28.61,ESE,112,4.9,8.2,83,0.00,,,0.00,Rainwise IP-100,2013-01-27 00:42:00,
2013-01-26 18:47:00,58.7,54.0,28.62,SE,135,4.4,7.9,83,0.00,,,0.00,Rainwise IP-100,2013-01-27 00:47:00,
2013-01-26 18:52:00,58.7,54.0,28.62,ESE,112,4.9,7.5,83,0.00,,,0.00,Rainwise IP-100,2013-01-27 00:52:00,
2013-01-26 18:57:00,58.6,54.0,28.62,SE,135,2.8,9.1,83,0.00,,,0.00,Rainwise IP-100,2013-01-27 00:57:00,
2013-01-26 19:02:00,58.6,54.0,28.63,ESE,112,4.9,7.7,83,0.00,,,0.00,Rainwise IP-100,2013-01-27 01:02:00,
2013-01-26 19:07:00,58.6,54.0,28.63,SE,135,4.7,7.7,84,0.00,,,0.00,Rainwise IP-100,2013-01-27 01:07:00,
2013-01-26 19:12:00,58.6,54.0,28.62,SE,135,5.8,7.0,84,0.00,,,0.00,Rainwise IP-100,2013-01-27 01:12:00,
2013-01-26 19:17:00,58.6,54.0,28.62,ESE,112,4.4,6.5,84,0.00,,,0.00,Rainwise IP-100,2013-01-27 01:17:00,
2013-01-26 19:22:00,58.6,54.5,28.62,ESE,112,4.0,6.3,85,0.00,,,0.00,Rainwise IP-100,2013-01-27 01:22:00,
2013-01-26 19:27:00,58.5,54.5,28.62,SE,135,4.4,6.1,85,0.00,,,0.00,Rainwise IP-100,2013-01-27 01:27:00,
2013-01-26 19:32:00,58.5,54.5,28.62,SE,135,3.0,6.8,85,0.00,,,0.00,Rainwise IP-100,2013-01-27 01:32:00,
2013-01-26 19:37:00,58.5,54.5,28.63,SE,135,4.9,6.3,85,0.00,,,0.00,Rainwise IP-100,2013-01-27 01:37:00,
2013-01-26 19:42:00,58.5,54.5,28.62,SE,135,3.3,6.1,85,0.00,,,0.00,Rainwise IP-100,2013-01-27 01:42:00,
2013-01-26 19:47:00,58.4,54.0,28.62,SSE,157,3.0,8.2,86,0.00,,,0.00,Rainwise IP-100,2013-01-27 01:47:00,
2013-01-26 19:52:00,58.4,54.0,28.62,ESE,112,5.1,8.6,86,0.00,,,0.00,Rainwise IP-100,2013-01-27 01:52:00,
2013-01-26 19:57:00,58.3,54.0,28.62,SE,135,6.1,7.2,86,0.00,,,0.00,Rainwise IP-100,2013-01-27 01:57:00,
2013-01-26 20:02:00,58.1,54.0,28.63,ESE,112,2.8,7.5,86,0.00,,,0.00,Rainwise IP-100,2013-01-27 02:02:00,
2013-01-26 20:07:00,58.0,54.0,28.62,ESE,112,4.2,5.8,86,0.00,,,0.00,Rainwise IP-100,2013-01-27 02:07:00,
2013-01-26 20:12:00,57.9,54.0,28.62,ESE,112,3.7,6.8,86,0.00,,,0.00,Rainwise IP-100,2013-01-27 02:12:00,
2013-01-26 20:17:00,57.7,53.5,28.62,SE,135,5.1,6.3,86,0.00,,,0.00,Rainwise IP-100,2013-01-27 02:17:00,
2013-01-26 20:22:00,57.4,53.5,28.62,East,90,4.4,7.2,86,0.00,,,0.00,Rainwise IP-100,2013-01-27 02:22:00,
2013-01-26 20:27:00,57.2,53.5,28.62,East,90,4.2,7.5,87,0.00,,,0.00,Rainwise IP-100,2013-01-27 02:27:00,
2013-01-26 20:32:00,57.0,53.5,28.62,East,90,3.3,7.7,87,0.00,,,0.00,Rainwise IP-100,2013-01-27 02:32:00,
2013-01-26 20:37:00,56.8,53.5,28.62,ESE,112,1.9,7.5,88,0.00,,,0.00,Rainwise IP-100,2013-01-27 02:37:00,
2013-01-26 20:42:00,56.6,53.0,28.62,ESE,112,4.0,7.5,88,0.00,,,0.00,Rainwise IP-100,2013-01-27 02:42:00,
2013-01-26 20:47:00,56.6,53.0,28.62,ESE,112,3.5,6.5,88,0.00,,,0.00,Rainwise IP-100,2013-01-27 02:47:00,
2013-01-26 20:52:00,56.5,53.5,28.62,ESE,112,3.5,7.5,89,0.00,,,0.00,Rainwise IP-100,2013-01-27 02:52:00,
2013-01-26 20:57:00,56.4,53.5,28.62,ESE,112,3.5,7.5,89,0.00,,,0.00,Rainwise IP-100,2013-01-27 02:57:00,
2013-01-26 21:02:00,56.3,53.5,28.61,ESE,112,5.4,9.1,90,0.00,,,0.00,Rainwise IP-100,2013-01-27 03:02:00,
2013-01-26 21:07:00,56.2,53.5,28.61,SE,135,2.6,7.5,90,0.00,,,0.00,Rainwise IP-100,2013-01-27 03:07:00,
2013-01-26 21:12:00,56.0,53.5,28.61,ESE,112,3.7,6.8,90,0.00,,,0.00,Rainwise IP-100,2013-01-27 03:12:00,
2013-01-26 21:17:00,55.9,53.5,28.61,SE,135,5.4,7.5,91,0.00,,,0.00,Rainwise IP-100,2013-01-27 03:17:00,
2013-01-26 21:22:00,55.7,53.5,28.61,ESE,112,2.8,9.1,91,0.00,,,0.00,Rainwise IP-100,2013-01-27 03:22:00,
2013-01-26 21:27:00,55.5,53.5,28.62,SE,135,3.5,7.5,92,0.00,,,0.00,Rainwise IP-100,2013-01-27 03:27:00,
2013-01-26 21:32:00,55.4,53.0,28.61,ESE,112,5.1,7.9,92,0.00,,,0.00,Rainwise IP-100,2013-01-27 03:32:00,
2013-01-26 21:37:00,55.3,53.5,28.61,SE,135,2.6,8.4,93,0.00,,,0.00,Rainwise IP-100,2013-01-27 03:37:00,
2013-01-26 21:42:00,55.1,53.5,28.61,ESE,112,6.1,6.1,93,0.00,,,0.00,Rainwise IP-100,2013-01-27 03:42:00,
2013-01-26 21:47:00,54.9,53.5,28.61,ESE,112,4.9,8.2,93,0.00,,,0.00,Rainwise IP-100,2013-01-27 03:47:00,
2013-01-26 21:52:00,54.8,53.5,28.61,SE,135,7.0,8.4,94,0.00,,,0.00,Rainwise IP-100,2013-01-27 03:52:00,
2013-01-26 21:57:00,54.7,53.0,28.61,ESE,112,1.9,7.9,94,0.00,,,0.00,Rainwise IP-100,2013-01-27 03:57:00,
2013-01-26 22:02:00,54.7,53.0,28.61,North,360,5.8,7.2,94,0.00,,,0.00,Rainwise IP-100,2013-01-27 04:02:00,
2013-01-26 22:07:00,54.7,53.5,28.61,ESE,112,4.9,8.9,95,0.00,,,0.00,Rainwise IP-100,2013-01-27 04:07:00,
2013-01-26 22:12:00,54.7,53.5,28.61,ESE,112,2.6,8.6,95,0.00,,,0.00,Rainwise IP-100,2013-01-27 04:12:00,
2013-01-26 22:17:00,54.7,53.5,28.61,ESE,112,4.9,7.5,95,0.00,,,0.00,Rainwise IP-100,2013-01-27 04:17:00,
2013-01-26 22:22:00,54.8,54.0,28.61,East,90,5.8,8.2,96,0.00,,,0.00,Rainwise IP-100,2013-01-27 04:22:00,
2013-01-26 22:27:00,54.9,54.0,28.61,ESE,112,2.8,9.6,96,0.00,,,0.00,Rainwise IP-100,2013-01-27 04:27:00,
2013-01-26 22:32:00,54.9,54.0,28.61,North,360,3.0,11.9,96,0.00,,,0.00,Rainwise IP-100,2013-01-27 04:32:00,
2013-01-26 22:37:00,55.0,54.0,28.61,North,360,4.9,11.0,96,0.00,,,0.00,Rainwise IP-100,2013-01-27 04:37:00,
2013-01-26 22:42:00,55.0,54.0,28.61,East,90,8.4,10.7,96,0.00,,,0.00,Rainwise IP-100,2013-01-27 04:42:00,
2013-01-26 22:47:00,55.0,54.0,28.61,ESE,112,8.6,11.9,96,0.00,,,0.00,Rainwise IP-100,2013-01-27 04:47:00,
2013-01-26 22:52:00,54.9,54.0,28.61,North,360,7.2,11.0,96,0.00,,,0.00,Rainwise IP-100,2013-01-27 04:52:00,
2013-01-26 22:57:00,54.9,54.0,28.61,South,180,5.8,9.3,96,0.00,,,0.00,Rainwise IP-100,2013-01-27 04:57:00,
2013-01-26 23:00:00,54.9,54.0,28.61,North,360,8.6,9.1,96,0.00,,,0.00,Rainwise IP-100,2013-01-27 05:00:00,
2013-01-26 23:05:00,55.0,54.0,28.62,North,360,6.5,8.6,96,0.00,,,0.00,Rainwise IP-100,2013-01-27 05:05:00,
2013-01-26 23:10:00,55.1,54.0,28.62,North,360,2.1,11.0,96,0.00,,,0.00,Rainwise IP-100,2013-01-27 05:10:00,
2013-01-26 23:15:00,55.2,54.0,28.62,North,360,4.0,10.3,96,0.00,,,0.00,Rainwise IP-100,2013-01-27 05:15:00,
2013-01-26 23:16:00,55.2,54.0,28.62,SSE,157,7.2,10.3,96,0.00,,,0.00,Rainwise IP-100,2013-01-27 05:16:00,
2013-01-26 23:21:00,55.3,54.0,28.61,South,180,7.2,12.8,96,0.00,,,0.00,Rainwise IP-100,2013-01-27 05:21:00,
2013-01-26 23:26:00,55.3,54.0,28.61,SSE,157,9.1,14.2,96,0.00,,,0.00,Rainwise IP-100,2013-01-27 05:26:00,
2013-01-26 23:31:00,55.2,54.0,28.61,SSE,157,7.2,11.9,96,0.00,,,0.00,Rainwise IP-100,2013-01-27 05:31:00,
2013-01-26 23:36:00,55.2,54.0,28.61,North,360,3.5,12.4,96,0.00,,,0.00,Rainwise IP-100,2013-01-27 05:36:00,
2013-01-26 23:41:00,55.2,54.0,28.61,SSE,157,5.1,9.8,96,0.00,,,0.00,Rainwise IP-100,2013-01-27 05:41:00,
2013-01-26 23:46:00,55.2,54.0,28.60,North,360,1.9,11.7,96,0.00,,,0.00,Rainwise IP-100,2013-01-27 05:46:00,
2013-01-26 23:51:00,55.2,54.0,28.60,North,360,3.3,13.1,96,0.00,,,0.00,Rainwise IP-100,2013-01-27 05:51:00,
2013-01-26 23:56:00,55.2,54.0,28.60,North,360,4.4,14.2,96,0.00,,,0.00,Rainwise IP-100,2013-01-27 05:56:00,